sat.trackr.live / text

‹ back to catalog

STARLINK-3306

NORAD 50163 · 2021-125H

PAYLOAD ACTIVE UNKNOWN

§ Identity

Operator
Country
US
Launch date
2021-12-18
Launch site
AFWTR
Launch vehicle
Mass (kg)
RCS (m²)

Purposes: comms

External: N2YO · Heavens-Above · Gunter

§ Orbital elements

Epoch: 2026-09-20T04:00:03.000096Z

Period
90.77 min
Inclination
53.2098°
Eccentricity
0.0004349
Mean motion
15.86509685 rev/d
Perigee alt
309.2 km
Apogee alt
315.0 km
Semi-major
6,690.2 km
B*
6.9743e-4
RAAN
39.7772°
Arg perigee
299.0831°
Mean anomaly
39.6105°
Rev number
599

§ Raw data

STARLINK-33061 50163U 21125H   26263.16670139  .00182969  00000+0  69743-3 0  99942 50163  53.2098  39.7772 0004349 299.0831  39.6105 15.86509685  5991

JSON: /api/v1/satellites/50163 · /tle

For live sub-satellite position, see the globe view (requires WebGL).

§ Visibility from observer

Set your observer location to see the next 7 days of passes ≥ 10°. The values pass through the URL so the page stays shareable.

No JS? Fill the form by hand. The geolocation button needs JavaScript.